Home   Weather   Burgas   Past weeks

Flag for Bulgaria Past Weather in Burgas, Bulgaria — Yesterday and Last 2 Weeks

57 °F


Feels Like: 57 °F
Forecast: 51 / 66 °F
Wind: 2 mph from Northwest

Location: Burgas Airport

Current Time: Oct 23, 2016 at 2:50:36 AM

Latest Report: Oct 23, 2016 at 2:30 AM

Visibility: 4 mi

Pressure: 30.12 "Hg

Humidity: 88%

Dew Point: 54 °F

Location of BurgasLocation

Past Weather in Burgas — Graph


Burgas Temperature Yesterday

Maximum temperature yesterday: 66 °F (at 12:30 PM)
Minimum temperature yesterday: 54 °F (at 8:00 AM)
Average temperature yesterday: 60 °F

High & Low Weather Summary for the Past Weeks

High75 °F (Oct 12, 3:30 PM)100% (Oct 8, 6:30 AM)30.48 "Hg (Oct 8, 6:30 AM)
Low41 °F (Oct 15, 6:00 AM)40% (Oct 13, 3:00 PM)29.62 "Hg (Oct 12, 3:30 PM)
Average56 °F76%30.13 "Hg
* Reported Oct 8 1:00 AM — Oct 23 1:30 AM, Burgas, Weather by CustomWeather, © 2016

Note: Actual official high and low records may vary slightly from our data, if they occured in-between our weather recording intervals... More about our weather records


Burgas Weather History for the Previous 24 Hours

Scroll right to see more
Time TempWeatherWind HumidityBarometerVisibility
1:30 AM
Sun, Oct 23
57 °FClear.6 mph88%30.09 "Hg10 mi
1:00 AM57 °FClear.6 mph94%30.09 "Hg10 mi
12:30 AM59 °FClear.6 mph88%30.09 "Hg10 mi
12:00 AM59 °FClear.6 mph88%30.09 "Hg10 mi
11:30 PM
Sat, Oct 22
59 °FClear.6 mph88%30.09 "Hg10 mi
11:00 PM59 °FClear.6 mph94%30.09 "Hg10 mi
10:30 PM59 °FPassing clouds.6 mph94%30.09 "HgN/A
10:00 PM59 °FClear.5 mph94%30.09 "Hg10 mi
9:30 PM59 °FClear.5 mph94%30.09 "Hg10 mi
9:00 PM59 °FClear.5 mph88%30.07 "Hg10 mi
8:30 PM61 °FClear.6 mph88%30.07 "Hg10 mi
8:00 PM61 °FPassing clouds.6 mph88%30.07 "HgN/A
7:30 PM61 °FPassing clouds.6 mph88%30.07 "HgN/A
7:00 PM61 °FPassing clouds.5 mph88%30.07 "HgN/A
6:30 PM63 °FPassing clouds.6 mph83%30.07 "HgN/A
6:00 PM63 °FPartly sunny.6 mph77%30.07 "HgN/A
5:30 PM63 °FOvercast.8 mph77%30.04 "HgN/A
5:00 PM63 °FPartly sunny.8 mph77%30.04 "HgN/A
4:30 PM63 °FOvercast.8 mph77%30.04 "HgN/A
4:00 PM63 °FOvercast.9 mph73%30.04 "HgN/A
3:30 PM63 °FOvercast.9 mph73%30.04 "HgN/A
3:00 PM64 °FScattered clouds.9 mph68%30.04 "HgN/A
2:30 PM64 °FScattered clouds.8 mph68%30.04 "HgN/A
2:00 PM64 °FPassing clouds.9 mph73%30.04 "HgN/A
1:30 PM64 °FPassing clouds.9 mph68%30.04 "HgN/A
1:00 PM64 °FPassing clouds.6 mph68%30.04 "HgN/A
12:30 PM66 °FPassing clouds.3 mph64%30.04 "HgN/A
12:00 PM64 °FPassing clouds.3 mph68%30.04 "HgN/A
11:30 AM63 °FPassing clouds.5 mph73%30.07 "HgN/A
11:00 AM63 °FScattered clouds.6 mph73%30.07 "HgN/A
10:30 AM63 °FScattered clouds.5 mph73%30.07 "HgN/A
10:00 AM61 °FPassing clouds.2 mph77%30.07 "HgN/A
9:30 AM59 °FScattered clouds.3 mph82%30.07 "HgN/A
9:00 AM57 °FScattered clouds.3 mph82%30.07 "HgN/A
8:30 AM57 °FScattered clouds.1 mph88%30.04 "HgN/A
8:00 AM54 °FBroken clouds.No wind88%30.04 "HgN/A
7:30 AM55 °FPartly cloudy.1 mph88%30.04 "HgN/A
7:00 AM57 °FPassing clouds.1 mph82%30.04 "HgN/A
6:30 AM57 °FPassing clouds.1 mph82%30.07 "HgN/A
6:00 AM57 °FPassing clouds.2 mph82%30.07 "HgN/A
5:30 AM59 °FMostly cloudy.2 mph77%30.07 "HgN/A
5:00 AM57 °FPartly cloudy.3 mph82%30.07 "HgN/A
4:30 AM57 °FPassing clouds.2 mph82%30.07 "HgN/A
4:00 AM57 °FPartly cloudy.5 mph82%30.07 "HgN/A
3:00 AM57 °FPartly cloudy.8 mph82%30.07 "HgN/A
2:30 AM57 °FPassing clouds.9 mph82%30.07 "HgN/A
2:00 AM57 °FPassing clouds.6 mph82%30.09 "HgN/A
Weather by CustomWeather, © 2016

See weather overviewHow to use our weather pages